Total_Precipitation_Accumulation
0.00 0.00 0.00 0.00 0.00 0.00 0.00 0.00 0.00 0.00 0.00 0.00 0.00 0.00 0.00 0.00 0.00 0.00 0.00 0.00 0.01 0.01 0.02 0.06 0.17 0.36 0.53 0.90 1.10 0.81 0.50 0.35 0.28 0.34 0.42 0.53 0.63 0.71 0.72 0.71 0.72 0.77 0.81 0.82
0.00 0.00 0.00 0.00 0.00 0.00 0.00 0.00 0.00 0.00 0.00 0.00 0.00 0.00 0.00 0.00 0.00 0.00 0.00 0.00 0.00 0.01 0.02 0.05 0.15 0.28 0.43 0.59 0.63 0.63 0.59 0.59 0.51 0.59 0.73 0.93 1.11 1.17 1.20 1.30 1.42 1.50 1.41 1.24
0.00 0.00 0.00 0.00 0.00 0.00 0.00 0.00 0.00 0.00 0.00 0.00 0.00 0.00 0.00 0.00 0.00 0.00 0.00 0.00 0.00 0.01 0.02 0.04 0.15 0.27 0.37 0.45 0.53 0.60 0.67 0.76 0.77 0.91 1.08 1.30 1.51 1.68 1.78 1.84 1.83 1.72 1.52 1.36
0.00 0.00 0.00 0.00 0.00 0.00 0.00 0.00 0.00 0.00 0.00 0.00 0.00 0.00 0.00 0.00 0.00 0.01 0.01 0.01 0.01 0.01 0.02 0.04 0.11 0.21 0.31 0.43 0.52 0.58 0.72 0.88 1.06 1.24 1.39 1.62 1.87 2.00 1.96 1.73 1.56 1.36 1.17 1.02
0.00 0.00 0.00 0.00 0.00 0.00 0.00 0.00 0.00 0.00 0.00 0.00 0.00 0.00 0.00 0.00 0.01 0.01 0.02 0.03 0.02 0.02 0.03 0.04 0.07 0.16 0.30 0.44 0.53 0.66 0.82 0.99 1.24 1.50 1.70 1.88 1.95 1.83 1.60 1.36 1.13 1.02 0.91 0.78
0.00 0.00 0.00 0.00 0.00 0.00 0.00 0.00 0.00 0.00 0.00 0.00 0.00 0.00 0.00 0.01 0.01 0.02 0.03 0.04 0.03 0.03 0.03 0.05 0.09 0.17 0.28 0.39 0.53 0.69 0.86 1.05 1.29 1.55 1.76 1.80 1.74 1.60 1.37 1.11 0.95 0.85 0.72 0.59
0.00 0.00 0.00 0.00 0.00 0.00 0.00 0.00 0.00 0.00 0.00 0.00 0.00 0.00 0.01 0.01 0.02 0.02 0.03 0.04 0.05 0.05 0.05 0.08 0.12 0.17 0.25 0.35 0.49 0.63 0.73 0.94 1.14 1.34 1.55 1.56 1.44 1.23 0.96 0.80 0.70 0.59 0.46 0.37
0.00 0.00 0.00 0.00 0.00 0.00 0.00 0.00 0.00 0.00 0.00 0.00 0.00 0.01 0.04 0.03 0.03 0.05 0.05 0.05 0.06 0.07 0.08 0.11 0.16 0.21 0.30 0.38 0.48 0.56 0.66 0.80 0.95 1.04 1.06 0.94 0.78 0.66 0.58 0.51 0.40 0.30 0.22 0.16
0.00 0.00 0.00 0.00 0.00 0.00 0.00 0.00 0.00 0.00 0.00 0.00 0.00 0.02 0.05 0.05 0.05 0.07 0.08 0.07 0.08 0.10 0.13 0.18 0.23 0.28 0.34 0.37 0.44 0.46 0.47 0.53 0.55 0.52 0.48 0.42 0.36 0.31 0.28 0.23 0.16 0.12 0.10 0.08
0.00 0.00 0.00 0.00 0.00 0.00 0.00 0.00 0.00 0.00 0.00 0.00 0.00 0.01 0.03 0.04 0.05 0.07 0.09 0.09 0.11 0.16 0.21 0.25 0.26 0.28 0.26 0.25 0.27 0.27 0.25 0.25 0.24 0.22 0.19 0.18 0.16 0.14 0.11 0.10 0.09 0.08 0.06 0.06
0.01 0.00 0.00 0.00 0.00 0.00 0.00 0.00 0.00 0.00 0.00 0.00 0.00 0.05 0.06 0.10 0.13 0.11 0.10 0.12 0.17 0.24 0.27 0.28 0.25 0.22 0.20 0.18 0.17 0.16 0.15 0.14 0.14 0.12 0.10 0.10 0.09 0.07 0.07 0.06 0.05 0.05 0.05 0.05
0.00 0.00 0.00 0.00 0.00 0.00 0.00 0.00 0.00 0.00 0.00 0.00 0.01 0.10 0.10 0.15 0.20 0.18 0.17 0.17 0.22 0.30 0.32 0.32 0.26 0.20 0.17 0.15 0.13 0.13 0.14 0.13 0.11 0.10 0.08 0.07 0.06 0.05 0.05 0.04 0.04 0.04 0.05 0.05
0.00 0.00 0.01 0.02 0.01 0.00 0.00 0.00 0.00 0.00 0.00 0.00 0.02 0.12 0.16 0.27 0.30 0.31 0.28 0.24 0.30 0.42 0.44 0.38 0.27 0.18 0.14 0.13 0.12 0.12 0.14 0.13 0.10 0.07 0.05 0.04 0.04 0.04 0.04 0.04 0.04 0.04 0.05 0.06
0.00 0.00 0.02 0.09 0.06 0.02 0.01 0.01 0.01 0.01 0.01 0.01 0.04 0.16 0.19 0.37 0.47 0.40 0.38 0.37 0.41 0.47 0.39 0.29 0.22 0.18 0.16 0.15 0.14 0.13 0.11 0.09 0.07 0.05 0.04 0.04 0.04 0.04 0.05 0.06 0.06 0.06 0.07 0.08
0.01 0.01 0.01 0.03 0.02 0.02 0.03 0.03 0.03 0.03 0.04 0.04 0.09 0.24 0.33 0.50 0.61 0.54 0.43 0.37 0.37 0.36 0.33 0.31 0.29 0.25 0.19 0.15 0.13 0.11 0.11 0.09 0.07 0.06 0.06 0.06 0.06 0.07 0.08 0.10 0.10 0.10 0.10 0.09
0.01 0.02 0.03 0.03 0.02 0.02 0.03 0.03 0.04 0.04 0.05 0.07 0.17 0.37 0.50 0.52 0.51 0.50 0.43 0.36 0.38 0.45 0.48 0.45 0.35 0.26 0.19 0.17 0.17 0.16 0.15 0.13 0.11 0.10 0.11 0.12 0.12 0.13 0.14 0.14 0.14 0.14 0.12 0.11
0.01 0.01 0.03 0.04 0.03 0.04 0.07 0.06 0.05 0.06 0.07 0.10 0.20 0.33 0.34 0.39 0.41 0.40 0.38 0.39 0.44 0.49 0.47 0.40 0.31 0.25 0.24 0.25 0.25 0.25 0.23 0.21 0.20 0.19 0.18 0.18 0.17 0.17 0.17 0.15 0.13 0.11 0.09 0.06
0.01 0.02 0.05 0.04 0.05 0.09 0.10 0.05 0.05 0.06 0.08 0.09 0.13 0.15 0.19 0.25 0.28 0.29 0.30 0.35 0.39 0.42 0.40 0.37 0.32 0.30 0.32 0.33 0.32 0.30 0.27 0.24 0.23 0.23 0.22 0.21 0.19 0.17 0.14 0.11 0.09 0.07 0.05 0.05
0.00 0.03 0.08 0.09 0.12 0.13 0.12 0.06 0.04 0.07 0.10 0.09 0.11 0.13 0.15 0.16 0.20 0.22 0.23 0.24 0.27 0.31 0.30 0.29 0.30 0.35 0.39 0.38 0.35 0.31 0.29 0.27 0.26 0.24 0.20 0.16 0.12 0.09 0.07 0.06 0.05 0.04 0.04 0.04
0.01 0.03 0.12 0.17 0.25 0.29 0.28 0.10 0.04 0.08 0.17 0.11 0.10 0.11 0.13 0.17 0.24 0.21 0.17 0.16 0.16 0.17 0.21 0.28 0.36 0.41 0.42 0.38 0.32 0.29 0.27 0.23 0.19 0.14 0.10 0.07 0.04 0.04 0.03 0.03 0.03 0.04 0.04 0.03
0.10 0.10 0.19 0.28 0.36 0.39 0.18 0.08 0.08 0.22 0.31 0.25 0.19 0.18 0.21 0.25 0.26 0.20 0.13 0.12 0.12 0.17 0.26 0.33 0.38 0.39 0.35 0.28 0.22 0.19 0.16 0.13 0.10 0.07 0.04 0.03 0.02 0.01 0.02 0.02 0.04 0.05 0.05 0.05
0.23 0.26 0.29 0.34 0.44 0.51 0.18 0.12 0.21 0.26 0.22 0.24 0.22 0.19 0.19 0.19 0.16 0.13 0.11 0.12 0.16 0.25 0.34 0.37 0.37 0.33 0.25 0.18 0.15 0.13 0.11 0.07 0.05 0.05 0.04 0.03 0.02 0.01 0.01 0.04 0.06 0.06 0.07 0.06
0.43 0.37 0.38 0.43 0.46 0.32 0.14 0.11 0.12 0.15 0.19 0.19 0.18 0.17 0.18 0.21 0.21 0.20 0.20 0.24 0.30 0.35 0.37 0.34 0.28 0.22 0.15 0.10 0.09 0.08 0.06 0.04 0.04 0.06 0.05 0.03 0.03 0.02 0.02 0.05 0.07 0.07 0.08 0.06
0.51 0.40 0.36 0.38 0.36 0.25 0.16 0.11 0.09 0.11 0.16 0.18 0.20 0.24 0.28 0.32 0.33 0.31 0.31 0.33 0.34 0.32 0.26 0.19 0.14 0.10 0.06 0.04 0.03 0.03 0.03 0.02 0.04 0.05 0.04 0.04 0.04 0.05 0.05 0.06 0.06 0.07 0.07 0.05
0.36 0.51 0.59 0.59 0.53 0.39 0.23 0.16 0.16 0.17 0.21 0.27 0.33 0.35 0.38 0.36 0.33 0.31 0.30 0.28 0.22 0.16 0.11 0.08 0.06 0.04 0.02 0.01 0.01 0.01 0.01 0.02 0.04 0.04 0.03 0.04 0.04 0.04 0.07 0.07 0.04 0.03 0.04 0.01
0.14 0.38 0.75 0.91 0.68 0.55 0.42 0.33 0.35 0.35 0.34 0.35 0.34 0.33 0.32 0.28 0.23 0.21 0.19 0.15 0.11 0.08 0.06 0.06 0.04 0.02 0.01 0.00 0.00 0.00 0.00 0.01 0.03 0.06 0.05 0.03 0.02 0.03 0.04 0.07 0.08 0.03 0.01 0.00